Regional Weather Roundup
Issued by NWS Mt. Holly, NJ

Home | Current Version | Previous Version | Text Only | Print | Product List | Glossary On
Versions: 1 2 3 4 5 6 7 8 9 10 11 12 13 14 15 16 17 18 19 20 21 22 23 24 25 26 27 28 29 30 31 32 33 34 35 36 37 38 39 40 41 42 43 44 45 46 47 48 49 50
000
ASUS41 KPHI 020710
RWRPHI

REGIONAL WEATHER ROUNDUP
NATIONAL WEATHER SERVICE MOUNT HOLLY NJ
300 AM EDT TUE SEP 02 2014

NOTE:  "FAIR" INDICATES FEW OR NO CLOUDS BELOW 12,000 FEET WITH NO
SIGNIFICANT WEATHER AND/OR OBSTRUCTIONS TO VISIBILITY.

 * = STATION DOES NOT REPORT PRECIPITATION (E.G. RAIN, SNOW, ETC.)
        OR FOG.

NJZ015>026-020800-
SOUTHERN NEW JERSEY

CITY           SKY/WX    TMP DP  RH WIND       PRES   REMARKS
POMONA         CLEAR     75  73  93 SW3       29.95F
RIO GRANDE*    CLEAR     75  70  83 SW3       29.96F
MILLVILLE      CLEAR     74  72  93 W5        29.95F
WRIGHTSTOWN    CLEAR     73  73 100 SE1       29.92S
MOUNT HOLLY    CLEAR     74  72  93 CALM      29.93F FOG
TRENTON        CLEAR     75  72  90 SW3       29.93F

$$
NJZ001>014-020800-
NORTHERN NEW JERSEY

CITY           SKY/WX    TMP DP  RH WIND       PRES   REMARKS
SUSSEX         FOG       71  68  90 CALM      29.93F VSB 1
ANDOVER*         N/A     69  68  96 SW3       29.95S
MORRISTOWN     FOG       70  66  88 CALM      29.93R VSB 1
NEWARK         CLEAR     78  74  87 SW8       29.92S
TETERBORO      CLEAR     77  72  84 SW3       29.91S
CALDWELL       CLEAR     75  70  84 CALM      29.93S
SOMERVILLE     PTCLDY    70  68  93 CALM      29.92S
ALLAIRE*       CLEAR     73  70  88 SW3       29.94S
TOMS RIVER*    CLEAR     73  72  94 SW3       29.95S

$$
PAZ043-044-047-054-055-060>062-066>071-020800-
EASTERN PENNSYLVANIA

CITY           SKY/WX    TMP DP  RH WIND       PRES   REMARKS
PHILADELPHIA   PTCLDY    78  74  87 SW8       29.94F
NORTH PHILA    PTCLDY    75  71  87 CALM      29.95F
BLUE BELL      PTCLDY    72  72 100 CALM      29.93S
DOYLESTOWN     CLEAR     72  72 100 S3        29.94S
QUAKERTOWN*    CLEAR     70  68  94 CALM      29.95F
POTTSTOWN      PTCLDY    72  71  97 CALM      29.95F FOG
LANCASTER      CLEAR     71  70  96 CALM      29.94F FOG
COATESVILLE    PTCLDY    73  73 100 SW3       29.97S
READING        MOCLDY    74  71  91 CALM      29.92F
ALLENTOWN      CLEAR     71  69  93 CALM      29.94F
MOUNT POCONO   CLEAR     68  66  93 W5        29.99F
HAZLETON       CLEAR     70  70 100 CALM      30.01F
WILKES BARRE   CLEAR     71  67  87 CALM      29.93F

$$
DEZALL-MDZ008-012-015-019-020-020800-
DELAWARE AND EASTERN MARYLAND

CITY           SKY/WX    TMP DP  RH WIND       PRES   REMARKS
WILMINGTON     MOCLDY    77  73  87 W7        29.95S
DOVER          PTCLDY    76  76 100 W3        29.93F
GEORGETOWN     CLEAR     74  71  91 S10       29.96F
EASTON         PTCLDY    78  78 100 CALM      29.99F
PATUXENT       PTCLDY    78  71  79 SW9       29.96F
OCEAN CITY     CLEAR     79  73  82 W7        29.96F
WALLOPS ISLAND CLEAR     76  73  91 W5        29.98F
SALISBURY      CLEAR     77  72  84 S5        29.96F

$$
PAZ001-021-NYZ056-072-MDZ011-DCZ001-020800-
OTHER NEARBY LOCATIONS

CITY           SKY/WX    TMP DP  RH WIND       PRES   REMARKS
HARRISBURG     PTCLDY    78  72  81 VRB3      29.92F
STATE COLLEGE  MOCLDY    69  67  93 S3        29.96F
WILLIAMSPORT   CLOUDY    70  67  90 CALM      29.91S
BINGHAMTON     MOCLDY    71  68  90 SW9       29.93F
NEW YORK CITY  CLEAR     80  72  76 VRB6      29.94F
BALTIMORE      PTCLDY    73  72  96 CALM      29.95F
WASHINGTON DC  PTCLDY    79  72  79 SW5       29.96F

$$


USA.gov is the U.S. government's official web portal to all federal, state and local government web resources and services.